Regional Weather Roundup
Issued by NWS

Home | Current Version | Previous Version | Graphics & Text | Print | Product List | Glossary Off
Versions: 1 2 3 4 5 6 7 8 9 10 11 12 13 14 15 16 17 18 19 20 21 22 23 24 25 26 27 28 29 30 31 32 33 34 35 36 37 38 39 40 41 42 43 44 45 46 47 48 49 50

000
ASUS43 KIND 192209
RWRIN

WEATHER ROUNDUP FOR INDIANA
NATIONAL WEATHER SERVICE INDIANAPOLIS IN
500 PM EST FRI JAN 19 2018

NOTE: "FAIR" INDICATES FEW OR NO CLOUDS BELOW 12,000 FEET WITH NO
SIGNIFICANT WEATHER AND/OR OBSTRUCTIONS TO VISIBILITY.

* - STATION DOES NOT REPORT WEATHER SUCH AS PRECIPITATION OR FOG.

+ - STATION NOT QUALITY CONTROLLED BY THE NATIONAL WEATHER SERVICE.
    USE DATA WITH CAUTION...ESPECIALLY DEWPOINT AND RELATIVE
    HUMIDITY OBSERVATIONS.

INZ001>003-010>013-019-020-192300-
NORTHWEST INDIANA

CITY           SKY/WX    TMP DP  RH WIND       PRES   REMARKS
GARY /AIRPORT/ MOCLDY    39  25  56 SW14      29.82S WCI  31
KNOX *+        FAIR      34  25  69 S15       29.85F WCI  24
LA PORTE +     FAIR      34  24  68 S10G17    29.83F WCI  26
MICHIGAN CITY+ FAIR      36  25  64 S14G22    29.81F WCI  27
MONTICELLO +   FAIR      36  23  59 S12       29.89S WCI  27
RENSSELAER +   FAIR      36  25  64 S17G26    29.87F WCI  25
VALPARAISO     FAIR      36  25  64 S17G26    29.83F WCI  26

$$

LMZ046-743>745-192300-
SOUTHERN LAKE MICHIGAN

STATION/POSITION TIME  TEMP    WIND        PRES    WAVE
                       AIR SEA DIR/SP/G            HT
                 (UTC) (F)     (DEG/KT/KT) (MB)    (FT)
BURNS HARBOR     2140   36     200/ 17/ 25 1009.8F
MICHIGAN CITY    2140   36     180/ 17/ 21   N/A

$$

INZ004-005-014>016-021>024-192300-
NORTH CENTRAL INDIANA

CITY           SKY/WX    TMP DP  RH WIND       PRES   REMARKS
ELKHART        FAIR      36  21  55 S12G21    29.83F WCI  27
GOSHEN           N/A     34  22  61 S22G32    29.84F WCI  22
LOGANSPORT +   FAIR      34  25  69 S17       29.91S WCI  23
PERU/GRISSOM   FAIR      35  26  69 SW17      29.89F WCI  24
ROCHESTER +    FAIR      36  27  69 S13G18    29.88F WCI  27
SOUTH BEND     FAIR      35  22  58 S16       29.82F WCI  25
WARSAW +       FAIR      36  23  60 S7G18     29.87S WCI  30

$$

INZ006>009-017-018-025>027-192300-
NORTHEAST INDIANA

CITY           SKY/WX    TMP DP  RH WIND       PRES   REMARKS
AUBURN +       FAIR     N/A N/A N/A S9        29.88F
FORT WAYNE     MOCLDY    35  24  64 S14       29.90F WCI  26
HUNTINGTON +   FAIR      35  21  58 S10G18    29.90S WCI  27
KENDALLVILLE + FAIR      34  23  64 SW17G24   29.85F WCI  23

$$

INZ028-029-035-036-043>045-051>053-192300-
WEST CENTRAL INDIANA

CITY           SKY/WX    TMP DP  RH WIND       PRES   REMARKS
CRAWFORDSVL +  FAIR      33  24  68 MISG      29.94
GREENCASTLE +  FAIR      37  21  52 S6        29.98S WCI  33
LAFAYETTE      FAIR      36  24  62 S10G21    29.92S WCI  28
TERRE HAUTE    FAIR      36  22  56 S16       29.99S WCI  26

$$

INZ030>032-037>040-046>048-054>057-064-065-192300-
CENTRAL INDIANA

CITY           SKY/WX    TMP DP  RH WIND       PRES   REMARKS
COLUMBUS       CLEAR     37  18  44 S15G23    30.01F WCI  28
FRANKFORT +    FAIR      37  27  67 SW10      29.94S WCI  30
INDIANAPOLIS   MOCLDY    39  24  55 S13       29.98S WCI  31
-EAGLE CREEK   FAIR      40  22  48 SW9       29.96S WCI  34
MARION +       FAIR      33  24  70 S14       29.93F WCI  23
MT COMFORT *+  FAIR      34  27  75 S9        29.98S WCI  26
SHELBYVILLE    FAIR      37  21  52 S16       29.99F WCI  28
ZIONSVILLE +   FAIR      36  22  57 S17       29.95S WCI  26

$$

INZ033-034-041-042-049-050-058-059-192300-
EAST CENTRAL INDIANA

CITY           SKY/WX    TMP DP  RH WIND       PRES   REMARKS
MUNCIE         FAIR      36  19  50 SW15G24   29.95S WCI  27
RICHMOND +     FAIR      32  25  74 S13       30.00S WCI  22

$$

INZ060-061-067>069-081>083-085>088-192300-
SOUTHWEST INDIANA

CITY           SKY/WX    TMP DP  RH WIND       PRES   REMARKS
EVANSVILLE     FAIR      39  22  50 S14G22    30.09F WCI  31
HUNTINGBURG +  FAIR      38  22  52 S13       30.08F WCI  30
WASHINGTON +   FAIR      39  21  49 S10       30.05R WCI  32

$$

INZ062-063-066-070>080-084-089>092-192300-
SOUTH CENTRAL AND SOUTHEAST INDIANA

CITY           SKY/WX    TMP DP  RH WIND       PRES   REMARKS
BATESVILLE *+    N/A    N/A N/A N/A MISG        N/A
BEDFORD +      FAIR      41  21  45 S10       30.04S
BLOOMINGTON    FAIR      41  24  51 SW15G24   30.01F
FRENCH LICK *+ FAIR      37  18  44 S9        30.06F WCI  31
MADISON *+     FAIR      37  21  52 S12       30.09S WCI  30
NORTH VERNON + FAIR      37  19  48 S10       30.05S WCI  30
SEYMOUR +      FAIR      41  23  48 S10       30.05F

$$





USA.gov is the U.S. government's official web portal to all federal, state and local government web resources and services.